Hourly Data Report for October 05, 2017

All times are specified in Local Standard Time (LST). Add 1 hour to adjust for Daylight Saving Time where and when it is observed.

BATHURST A
NEW BRUNSWICK

47°37'47.000" N
65°44'20.000" W
58.80 m
8100505
71574
ZBF

Download Data

Hourly Data (October 2017)
Hourly Data Report for October 5, 2017
Temp Definition
°C
Dew Point Temp Definition
°C
Rel Hum Definition
%
Wind Dir Definition
10's deg

Wind Spd Definition
km/h
Visibility Definition
km
Stn Press Definition
kPa
Hmdx Definition


Wind Chill Definition


Weather Definition


TIME
00:00 Legend Double Dagger 16.4 15.3 93 25 8 19.3 99.93     LegendNANA
01:00 Legend Double Dagger 17.0 15.8 93 24 18 19.3 99.98     Rain
02:00 Legend Double Dagger 16.1 15.3 95 23 7 19.3 99.77     Cloudy
03:00 Legend Double Dagger 15.3 14.4 95 23 9 19.3 99.83     LegendNANA
04:00 Legend Double Dagger 15.3 14.3 94 22 10 19.3 99.84     LegendNANA
05:00 Legend Double Dagger 15.5 11.7 78 28 22 19.3 99.99     Mostly Cloudy
06:00 Legend Double Dagger 13.4 10.3 82 30 17 19.3 100.17     LegendNANA
07:00 Legend Double Dagger 12.9 10.3 84 31 10 24.1 100.29     LegendNANA
08:00 Legend Double Dagger 12.8 7.4 69 29 18 24.1 100.36     Mainly Clear
09:00 Legend Double Dagger 13.4 8.1 70 28 12 24.1 100.39     LegendNANA
10:00 Legend Double Dagger 14.2 6.8 61 28 22 24.1 100.45     LegendNANA
11:00 Legend Double Dagger 15.2 6.1 54 29 18 24.1 100.44     Mainly Clear
12:00 Legend Double Dagger 15.5 6.7 55 31 13 24.1 100.42     LegendNANA
13:00 Legend Double Dagger 16.9 6.3 49 27 19 24.1 100.35     LegendNANA
14:00 Legend Double Dagger 17.1 5.7 47 29 16 24.1 100.32     Mainly Clear
15:00 Legend Double Dagger 17.1 5.8 47 26 19 24.1 100.32     LegendNANA
16:00 Legend Double Dagger 15.7 5.2 50 27 12 24.1 100.34     LegendNANA
17:00 Legend Double Dagger 14.8 5.2 52 26 15 24.1 100.38     Mainly Clear
18:00 Legend Double Dagger 13.5 6.4 62 19 5 24.1 100.36     LegendNANA
19:00 Legend Double Dagger 12.7 7.2 69 20 7 24.1 100.32     LegendNANA
20:00 Legend Double Dagger 12.9 6.9 67 22 11 24.1 100.32     Mostly Cloudy
21:00 Legend Double Dagger 12.7 7.3 69 22 10 24.1 100.28     LegendNANA
22:00 Legend Double Dagger 13.6 7.1 65 21 12 24.1 100.25     LegendNANA
23:00 Legend Double Dagger 11.7 8.0 78 26 8 24.1 100.29     Rain Showers

Notes on Data Quality.

Legend

  • E = Estimated
  • M = Missing
  • NA = Not Available
  • ‡ = Partner data that is not subject to review by the National Climate Archives
Date modified: